Terminal Aerodrome Forecast
Issued by NWS New Orleans/Baton Rouge, LA

Home | Current Version | Previous Version | Text Only | Print | Product List | Glossary On
Versions: 1 2 3 4 5 6 7 8 9 10 11 12 13 14 15 16 17 18 19 20 21 22
000
FTUS44 KLIX 300539
TAFBTR
TAF
KBTR 300539Z 3006/3106 18009KT 4SM TSRA SCT022CB BKN080 OVC110
     FM301400 20010KT P6SM OVC040
     FM302200 21010KT P6SM SCT090=

USA.gov is the U.S. government's official web portal to all federal, state and local government web resources and services.